Weather Service Report


279 
ASUS41 KRLX 060010
RWRRLX
West Virginia Regional Weather Roundup
National Weather Service Charleston WV
700 PM EST MON DEC 05 2016

Note: "fair" indicates few or no clouds below 12,000 feet with no
significant weather and/or obstructions to visibility.

WVZ003-060100-
Northern Panhandle of West Virginia
  
CITY           SKY/WX    TMP DP  RH WIND       PRES   REMARKS
WHEELING       CLOUDY    36  27  69 NE8       30.07F                  
$$

WVZ009-060100-
Northwest West Virginia
  
CITY           SKY/WX    TMP DP  RH WIND       PRES   REMARKS
PARKERSBURG    CLOUDY    39  30  70 CALM      30.10S                  
$$

WVZ006-060100-
Western West Virginia
  
CITY           SKY/WX    TMP DP  RH WIND       PRES   REMARKS
HUNTINGTON     CLOUDY    45  35  68 NE5       30.02S                  
$$

WVZ015-060100-
West Central West Virginia
  
CITY           SKY/WX    TMP DP  RH WIND       PRES   REMARKS
CHARLESTON     CLOUDY    45  35  68 NE3       30.03F                  
$$

WVZ022-031-060100-
North Central West Virginia
  
CITY           SKY/WX    TMP DP  RH WIND       PRES   REMARKS
CLARKSBURG     PTCLDY    40  32  73 NE8       30.06R                  
MORGANTOWN     PTCLDY    39  29  67 N6        30.09R                  
$$

WVZ025-035-042-045-060100-
Southern West Virginia
  
CITY           SKY/WX    TMP DP  RH WIND       PRES   REMARKS
BECKLEY        CLOUDY    41  33  73 E3        30.01S                  
LOGAN            N/A     45  36  70 CALM      29.99F                  
BLUEFIELD      CLOUDY    42  34  73 E6        30.00S                  
LEWISBURG      CLOUDY    41  34  76 CALM      30.03S                  
$$

WVZ047-060100-
Northern Mountains of West Virginia
  
CITY           SKY/WX    TMP DP  RH WIND       PRES   REMARKS
ELKINS         PTCLDY    37  32  82 CALM      30.05R                  
$$

WVZ052-060100-
Eastern Panhandle of West Virginia
  
CITY           SKY/WX    TMP DP  RH WIND       PRES   REMARKS
MARTINSBURG    PTCLDY    44  30  57 N7        30.08R                  
PETERSBURG     MOCLDY    43  36  75 NW5       30.08R                  
$$
  


384 
ASUS41 KRLX 060010
RWRRLX
CRWRWRRLX ALL
West Virginia Regional Weather Roundup
National Weather Service Charleston WV
Issued by National Weather Service Pittsburgh PA
700 PM EST MON DEC 05 2016

Note: "fair" indicates few or no clouds below 12,000 feet with no
significant weather and/or obstructions to visibility.

WVZ003-060100-
Northern Panhandle of West Virginia
  
CITY           SKY/WX    TMP DP  RH WIND       PRES   REMARKS
WHEELING       CLOUDY    36  27  69 NE8       30.07F                  
$$

WVZ009-060100-
Northwest West Virginia
  
CITY           SKY/WX    TMP DP  RH WIND       PRES   REMARKS
PARKERSBURG    CLOUDY    39  30  70 CALM      30.10S                  
$$

WVZ006-060100-
Western West Virginia
  
CITY           SKY/WX    TMP DP  RH WIND       PRES   REMARKS
HUNTINGTON     CLOUDY    45  35  68 NE5       30.02S                  
$$

WVZ015-060100-
West Central West Virginia
  
CITY           SKY/WX    TMP DP  RH WIND       PRES   REMARKS
CHARLESTON     CLOUDY    45  35  68 NE3       30.03F                  
$$

WVZ031-060100-
North Central West Virginia
  
CITY           SKY/WX    TMP DP  RH WIND       PRES   REMARKS
CLARKSBURG     PTCLDY    40  32  73 NE8       30.06R                  
MORGANTOWN     PTCLDY    39  29  67 N6        30.09R                  
$$

WVZ035-042-060100-
South Central West Virginia
  
CITY           SKY/WX    TMP DP  RH WIND       PRES   REMARKS
BECKLEY        CLOUDY    41  33  73 E3        30.01S                  
BLUEFIELD      CLOUDY    42  34  73 E6        30.00S                  
$$

WVZ045-060100-
Greenbrier Valley of West Virginia
  
CITY           SKY/WX    TMP DP  RH WIND       PRES   REMARKS
LEWISBURG      CLOUDY    41  34  76 CALM      30.03S                  
$$

WVZ047-060100-
Northern Mountains of West Virginia
  
CITY           SKY/WX    TMP DP  RH WIND       PRES   REMARKS
ELKINS         PTCLDY    37  32  82 CALM      30.05R                  
$$

WVZ052-060100-
Eastern Panhandle of West Virginia
  
CITY           SKY/WX    TMP DP  RH WIND       PRES   REMARKS
MARTINSBURG    PTCLDY    44  30  57 N7        30.08R                  
PETERSBURG     MOCLDY    43  36  75 NW5       30.08R                  
$$
  

Return to Home page


Western Regional Climate Center, wrcc@dri.edu